Location: Highridge
(54.0333°N, 114.1333°W)
Time: 13:03:23
(UTC+00:00)

Oscar 19 - Pass Details

Date: 04 December 2023
Orbit: 771 x 789 km, 98.9° (Epoch: 01 March)

Event Time Altitude Azimuth Distance (km) Brightness Sun altitude
Rises 14:10:55 0° 10° (N) 3,272 13.7 -11.7°
Reaches altitude 10° 14:13:38 10° 357° (N) 2,342 12.9 -11.3°
Maximum altitude 14:17:37 23° 306° (NW) 1,603 11.7 -10.8°
Drops below altitude 10° 14:21:38 10° 255° (WSW) 2,341 12.7 -10.2°
Sets 14:24:20 0° 241° (WSW) 3,268 13.5 -9.9°
